User: anonymous   Login
Location: Poughquag
(41.6090°N, 73.6820°W)
Time: 07:41:55
(UTC-04:00)
Language:

Explorer 11/Cluster Stage 4 - Orbit

View from above orbital plane
View from above orbital plane
View from above satellite
View from above satellite

Ground track
Ground track

The orbit data is extracted from the following two-line orbital elements,

1   107U 61013A   20149.75479527 +.00000310 +00000-0 +19235-4 0  9999
2   107 028.7917 292.7093 0546801 278.7434 075.1612 14.08964337963448
Epoch (UTC): 28 May 2020 18:06:54
Eccentricity: 0.0546801
inclination: 28.7917°
perigee height: 467 km
apogee height: 1259 km
right ascension of ascending node: 292.7093°
argument of perigee: 278.7434°
revolutions per day: 14.08964337
mean anomaly at epoch: 75.1612°
orbit number at epoch: 96344

The dashed part of the orbit path shows where the satellite is in the earth's shadow,  

DLR